Weather History for Florala, AL

Change the Weather History Date:

Wednesday, April 23, 2014

  Actual Average (KCEW) Record (KCEW)
Temperature  
Mean Temperature 70 °F -  
Max Temperature 82 °F 82 °F 91 °F (1980)
Min Temperature 59 °F 54 °F 32 °F (1993)
Cooling Degree Days 6    
Growing Degree Days 20 (Base 50)    
Moisture  
Dew Point 60 °F    
Average Humidity 79    
Maximum Humidity 100    
Minimum Humidity 41    
Precipitation  
Precipitation 0.00 in - - ()
Sea Level Pressure  
Sea Level Pressure 29.93 in    
Wind  
Wind Speed 1 mph (North)    
Max Wind Speed 6 mph    
Max Gust Speed -    
Visibility 6 miles    
Events Fog , Rain    
Averages and records for this station are not official NWS values.
T = Trace of Precipitation, MM = Missing Value Source: NWS Daily Summary

Daily Weather History Graph

Daily Weather History Graph

Search for Another Location

Airport:

Trip Planner

Search our weather history database for the weather conditions in past years. The results will help you decide how hot, cold, wet, or windy it might be!

Date:

Astronomy

Apr. 23, 2014 Rise Set
Actual Time 6:08 AM CDT 7:18 PM CDT
Civil Twilight 5:43 AM CDT 7:44 PM CDT
Nautical Twilight 5:13 AM CDT 8:14 PM CDT
Astronomical Twilight 4:42 AM CDT 8:45 PM CDT
Moon 2:15 AM CDT (4/23) 1:49 PM CDT (4/23)
Length of Visible Light 14h 00m
Length of Day
13h 10m
Waning Crescent, 34% of the Moon is Illuminated
Apr 23
Waning Crescent
Apr 29
New
May 6
First Quarter
May 14
Full
May 21
Last Quarter

Hourly Weather History & Observations

Time (CDT) Temp. Heat Index Dew Point Humidity Pressure Visibility Wind Dir Wind Speed Gust Speed Precip Events Conditions
12:58 AM 61.0 °F - 59.0 °F 93% 29.91 in 6.0 mi Calm Calm - N/A   Clear
1:58 AM 61.0 °F - 57.9 °F 90% 29.90 in 7.0 mi Calm Calm - N/A   Clear
2:49 AM 59.0 °F - 57.2 °F 94% 29.90 in 5.0 mi Calm Calm - N/A   Partly Cloudy
2:58 AM 60.1 °F - 57.0 °F 90% 29.90 in 5.0 mi Calm Calm - N/A   Partly Cloudy
3:49 AM 60.8 °F - 60.8 °F 100% 29.91 in 2.5 mi Calm Calm - N/A   Clear
3:58 AM 62.1 °F - 60.1 °F 93% 29.90 in 2.5 mi Calm Calm - N/A   Clear
4:11 AM 62.6 °F - 60.8 °F 94% 29.92 in 2.5 mi Calm Calm - N/A   Partly Cloudy
4:21 AM 62.6 °F - 60.8 °F 94% 29.92 in 2.0 mi Calm Calm - N/A   Mostly Cloudy
4:25 AM 62.6 °F - 60.8 °F 94% 29.92 in 1.2 mi Calm Calm - N/A   Mostly Cloudy
4:31 AM 62.6 °F - 60.8 °F 94% 29.92 in 0.5 mi Calm Calm - N/A Fog Fog
4:58 AM 62.1 °F - 61.0 °F 96% 29.91 in 0.8 mi Variable 4.6 mph - N/A   Mist
5:05 AM 62.6 °F - 60.8 °F 94% 29.92 in 1.0 mi Calm Calm - N/A   Mist
5:12 AM 62.6 °F - 60.8 °F 94% 29.92 in 0.8 mi Calm Calm - N/A   Mist
5:58 AM 60.1 °F - 59.0 °F 96% 29.93 in 0.5 mi Calm Calm - N/A Fog Fog
6:58 AM 60.1 °F - 59.0 °F 96% 29.96 in 0.2 mi NNW 3.5 mph - 0.00 in Fog , Rain Light Rain
7:44 AM 62.6 °F - 60.8 °F 94% 29.98 in 1.0 mi North 3.5 mph - 0.00 in   Overcast
7:58 AM 63.0 °F - 61.0 °F 93% 29.97 in 1.5 mi North 4.6 mph - 0.00 in   Overcast
8:05 AM 62.6 °F - 60.8 °F 94% 29.98 in 2.0 mi North 4.6 mph - N/A   Overcast
8:18 AM 64.4 °F - 62.6 °F 94% 29.98 in 4.0 mi Calm Calm - N/A   Mostly Cloudy
8:26 AM 64.4 °F - 62.6 °F 94% 29.98 in 8.0 mi Calm Calm - N/A   Scattered Clouds
8:58 AM 71.1 °F - 63.0 °F 75% 29.97 in 10.0 mi Variable 3.5 mph - N/A   Clear
9:58 AM 75.0 °F - 63.0 °F 66% 29.98 in 10.0 mi Variable 5.8 mph - N/A   Scattered Clouds
10:09 AM 75.2 °F - 62.6 °F 65% 29.99 in 10.0 mi Variable 3.5 mph - N/A   Mostly Cloudy
10:54 AM 78.8 °F - 60.8 °F 54% 29.99 in 10.0 mi Calm Calm - N/A   Scattered Clouds
10:58 AM 78.1 °F - 61.0 °F 56% 29.98 in 10.0 mi ENE 4.6 mph - N/A   Partly Cloudy
11:58 AM 80.1 °F 81.1 °F 61.0 °F 52% 29.96 in 10.0 mi Calm Calm - N/A   Mostly Cloudy
12:58 PM 79.0 °F - 60.1 °F 52% 29.94 in 10.0 mi North 5.8 mph - N/A   Mostly Cloudy
1:58 PM 80.1 °F 80.9 °F 60.1 °F 50% 29.93 in 10.0 mi North - - N/A   Mostly Cloudy
2:58 PM 81.0 °F 81.6 °F 60.1 °F 49% 29.92 in 10.0 mi North 4.6 mph - N/A   Unknown
3:58 PM 81.0 °F 81.1 °F 57.9 °F 45% 29.90 in 10.0 mi NE 4.6 mph - N/A   Scattered Clouds
4:58 PM 82.0 °F 81.6 °F 55.9 °F 41% 29.89 in 10.0 mi Calm Calm - N/A   Clear
5:58 PM 82.0 °F 81.7 °F 57.0 °F 42% 29.88 in 10.0 mi Calm Calm - N/A   Clear
6:58 PM 75.9 °F - 59.0 °F 56% 29.89 in 10.0 mi Calm Calm - N/A   Clear
7:58 PM 70.0 °F - 61.0 °F 73% 29.91 in 10.0 mi Calm Calm - N/A   Clear
8:58 PM 70.0 °F - 62.1 °F 76% 29.93 in 10.0 mi SW 4.6 mph - N/A   Clear
9:58 PM 69.1 °F - 62.1 °F 78% 29.95 in 10.0 mi SW 3.5 mph - N/A   Partly Cloudy
10:58 PM 66.0 °F - 62.1 °F 87% 29.95 in 10.0 mi Calm Calm - N/A   Partly Cloudy
11:58 PM 64.9 °F - 62.1 °F 90% 29.94 in 10.0 mi Calm Calm - N/A   Mostly Cloudy